Location: Unspecified
(0.0000°N, 0.0000°E)
Time: 19:09:00
(UTC+00:00)

Hubble Space Telescope - Pass Details

Date: 25 November 2018
Orbit: 536 x 540 km, 28.5° (Epoch: 16 October)

Event Time Altitude Azimuth Distance (km) Brightness Sun altitude
Exits shadow 04:49:17 16° 257° (WSW) 1,419 2.4 -13.5°
Maximum altitude 04:52:20 52° 330° (NNW) 667 0.9 -12.7°
Drops below altitude 10° 04:56:20 10° 47° (NE) 1,775 3.8 -11.8°
Sets 04:58:38 0° 52° (NE) 2,663 4.8 -11.3°
